Wheaton NDB, MN

8:56 PM CDT on July 20, 2017 (GMT -0500)
Wheaton Municipal

Weather History for KETH - January, 2014

Change the Weather History Date:

Monday, January 13, 2014

  Actual Average Record
Temperature  
Mean Temperature 28 °F -  
Max Temperature 35 °F 20 °F 55 °F (1987)
Min Temperature 21 °F 2 °F -23 °F (2009)
Degree Days  
Heating Degree Days 37    
Moisture  
Dew Point 23 °F    
Average Humidity 85    
Maximum Humidity 100    
Minimum Humidity 69    
Precipitation  
Precipitation 0.00 in - - ()
Sea Level Pressure  
Sea Level Pressure 29.63 in    
Wind  
Wind Speed 11 mph (West)    
Max Wind Speed 21 mph    
Max Gust Speed 29 mph    
Visibility 10 miles    
Events Snow    
Averages and records for this station are not official NWS values.
T = Trace of Precipitation, MM = Missing Value Source: NWS Daily Summary

Daily Weather History Graph

Daily Weather History Graph

Search for Another Location

Airport or City:

Trip Planner

Search our weather history database for the weather conditions in past years. The results will help you decide how hot, cold, wet, or windy it might be!

Date:

Astronomy

Jan. 13, 2014 Rise Set
Actual Time 8:04 AM CST 5:05 PM CST
Civil Twilight 7:30 AM CST 5:39 PM CST
Nautical Twilight 6:53 AM CST 6:16 PM CST
Astronomical Twilight 6:18 AM CST 6:52 PM CST
Moon 3:22 PM CST (1/13) 5:53 AM CST (1/13)
Length of Visible Light 10h 08m
Length of Day
9h 01m
Waxing Gibbous, 95% of the Moon is Illuminated
Jan 13
Waxing Gibbous
Jan 15
Full
Jan 23
Last Quarter
Jan 30
New
Feb 6
First Quarter

Hourly Weather History & Observations

Time (CST) Temp. Windchill Dew Point Humidity Pressure Visibility Wind Dir Wind Speed Gust Speed Precip Events Conditions
12:14 AM 35.6 °F 24.5 °F 30.2 °F 81% 29.61 in 10.0 mi NW 20.7 mph 28.8 mph N/A   Overcast
12:34 AM 33.8 °F 22.2 °F 28.4 °F 81% 29.62 in 10.0 mi NW 20.7 mph 27.6 mph N/A   Overcast
12:54 AM 33.8 °F 22.8 °F 24.8 °F 70% 29.62 in 10.0 mi NW 18.4 mph 23.0 mph N/A   Overcast
1:14 AM 33.8 °F 23.2 °F 26.6 °F 75% 29.63 in 10.0 mi NW 17.3 mph 21.9 mph N/A   Overcast
1:34 AM 33.8 °F 24.3 °F 26.6 °F 75% 29.63 in 10.0 mi NW 13.8 mph - N/A   Overcast
1:54 AM 32.0 °F 21.6 °F 26.6 °F 80% 29.64 in 10.0 mi NW 15.0 mph 18.4 mph N/A   Overcast
2:14 AM 32.0 °F 21.6 °F 26.6 °F 80% 29.65 in 10.0 mi WNW 15.0 mph 21.9 mph N/A   Overcast
2:34 AM 30.2 °F 19.8 °F 24.8 °F 80% 29.66 in 10.0 mi West 13.8 mph - N/A   Mostly Cloudy
2:54 AM 30.2 °F 21.3 °F 24.8 °F 80% 29.67 in 10.0 mi West 10.4 mph - N/A   Scattered Clouds
3:14 AM 28.4 °F 21.2 °F 23.0 °F 80% 29.67 in 10.0 mi West 6.9 mph - N/A   Clear
3:34 AM 26.6 °F 17.5 °F 23.0 °F 86% 29.67 in 10.0 mi West 9.2 mph - N/A   Clear
3:54 AM 26.6 °F 19.1 °F 23.0 °F 86% 29.68 in 10.0 mi West 6.9 mph - N/A   Mostly Cloudy
4:14 AM 26.6 °F 15.2 °F 23.0 °F 86% 29.68 in 10.0 mi West 13.8 mph - N/A   Scattered Clouds
4:34 AM 26.6 °F 16.8 °F 21.2 °F 80% 29.69 in 10.0 mi West 10.4 mph - N/A   Clear
4:54 AM 26.6 °F 16.8 °F 21.2 °F 80% 29.69 in 10.0 mi West 10.4 mph - N/A   Clear
5:14 AM 24.8 °F 16.9 °F 21.2 °F 86% 29.69 in 10.0 mi West 6.9 mph - N/A   Clear
5:34 AM 24.8 °F 14.6 °F 19.4 °F 80% 29.70 in 10.0 mi West 10.4 mph - N/A   Clear
5:54 AM 24.8 °F 14.6 °F 19.4 °F 80% 29.70 in 10.0 mi West 10.4 mph - N/A   Clear
6:14 AM 24.8 °F 14.6 °F 19.4 °F 80% 29.70 in 10.0 mi West 10.4 mph - N/A   Clear
6:34 AM 24.8 °F 13.4 °F 19.4 °F 80% 29.70 in 10.0 mi WNW 12.7 mph - N/A   Clear
6:54 AM 24.8 °F 14.6 °F 19.4 °F 80% 29.70 in 10.0 mi West 10.4 mph - N/A   Clear
7:14 AM 24.8 °F 14.6 °F 19.4 °F 80% 29.70 in 10.0 mi West 10.4 mph - N/A   Clear
7:34 AM 23.0 °F 12.4 °F 19.4 °F 86% 29.70 in 10.0 mi West 10.4 mph - N/A   Clear
7:54 AM 21.2 °F 11.7 °F 17.6 °F 86% 29.71 in 10.0 mi West 8.1 mph - N/A   Clear
8:14 AM 21.2 °F 10.9 °F 17.6 °F 86% 29.70 in 10.0 mi West 9.2 mph - N/A   Clear
8:34 AM 23.0 °F 12.4 °F 17.6 °F 80% 29.70 in 10.0 mi West 10.4 mph - N/A   Clear
8:54 AM 23.0 °F 13.1 °F 17.6 °F 80% 29.70 in 10.0 mi WNW 9.2 mph - N/A   Clear
9:14 AM 23.0 °F 13.9 °F 17.6 °F 80% 29.70 in 10.0 mi West 8.1 mph - N/A   Clear
9:34 AM 24.8 °F 17.9 °F 19.4 °F 80% 29.70 in 10.0 mi West 5.8 mph - N/A   Scattered Clouds
9:54 AM 24.8 °F 16.9 °F 19.4 °F 80% 29.70 in 10.0 mi West 6.9 mph - N/A   Scattered Clouds
10:14 AM 24.8 °F 17.9 °F 19.4 °F 80% 29.71 in 10.0 mi West 5.8 mph - N/A   Clear
10:34 AM 26.6 °F 17.5 °F 19.4 °F 74% 29.71 in 10.0 mi West 9.2 mph - N/A   Clear
10:54 AM 26.6 °F 16.2 °F 19.4 °F 74% 29.71 in 10.0 mi WNW 11.5 mph - N/A   Clear
11:14 AM 26.6 °F 15.7 °F 19.4 °F 74% 29.71 in 10.0 mi WNW 12.7 mph - N/A   Clear
11:34 AM 26.6 °F 18.2 °F 19.4 °F 74% 29.70 in 10.0 mi West 8.1 mph - N/A   Clear
11:54 AM 26.6 °F 16.8 °F 21.2 °F 80% 29.69 in 10.0 mi West 10.4 mph - N/A   Clear
12:14 PM 28.4 °F 19.7 °F 19.4 °F 69% 29.67 in 10.0 mi WNW 9.2 mph - N/A   Clear
12:34 PM 28.4 °F 21.2 °F 21.2 °F 74% 29.66 in 10.0 mi WNW 6.9 mph - N/A   Clear
12:54 PM 28.4 °F 21.2 °F 21.2 °F 74% 29.66 in 10.0 mi WNW 6.9 mph - N/A   Clear
1:14 PM 28.4 °F 23.3 °F 21.2 °F 74% 29.65 in 10.0 mi WNW 4.6 mph - N/A   Clear
1:34 PM 28.4 °F 22.2 °F 21.2 °F 74% 29.65 in 10.0 mi West 5.8 mph - N/A   Clear
1:54 PM 28.4 °F - 21.2 °F 74% 29.64 in 10.0 mi Calm Calm - N/A   Clear
2:14 PM 28.4 °F 24.6 °F 21.2 °F 74% 29.65 in 10.0 mi NNW 3.5 mph - N/A   Clear
2:34 PM 28.4 °F - 21.2 °F 74% 29.64 in 10.0 mi Calm Calm - N/A   Clear
2:54 PM 28.4 °F - 21.2 °F 74% 29.63 in 10.0 mi Calm Calm - N/A   Scattered Clouds
3:14 PM 28.4 °F - 24.8 °F 86% 29.61 in 5.0 mi Calm Calm - N/A Snow Light Snow
3:34 PM 28.4 °F 24.6 °F 24.8 °F 86% 29.61 in 5.0 mi South 3.5 mph - N/A Snow Light Snow
3:54 PM 28.4 °F 24.6 °F 26.6 °F 93% 29.60 in 10.0 mi South 3.5 mph - N/A Snow Light Snow
4:14 PM 28.4 °F 22.2 °F 26.6 °F 93% 29.60 in 10.0 mi SE 5.8 mph - N/A   Overcast
4:34 PM 28.4 °F 22.2 °F 26.6 °F 93% 29.60 in 10.0 mi SE 5.8 mph - N/A   Overcast
4:54 PM 28.4 °F 22.2 °F 26.6 °F 93% 29.60 in 10.0 mi ESE 5.8 mph - N/A   Overcast
5:14 PM 28.4 °F 22.2 °F 26.6 °F 93% 29.59 in 10.0 mi ESE 5.8 mph - N/A   Overcast
5:34 PM 28.4 °F 21.2 °F 26.6 °F 93% 29.59 in 10.0 mi East 6.9 mph - N/A   Overcast
5:54 PM 26.6 °F 19.1 °F 24.8 °F 93% 29.58 in 10.0 mi ESE 6.9 mph - N/A   Scattered Clouds
6:14 PM 26.6 °F 19.1 °F 24.8 °F 93% 29.57 in 10.0 mi ESE 6.9 mph - N/A   Clear
6:34 PM 24.8 °F 20.5 °F 23.0 °F 93% 29.57 in 10.0 mi ESE 3.5 mph - N/A   Clear
6:54 PM 23.0 °F 15.8 °F 21.2 °F 93% 29.56 in 10.0 mi ESE 5.8 mph - N/A   Clear
7:14 PM 24.8 °F 16.1 °F 24.8 °F 100% 29.54 in 10.0 mi ESE 8.1 mph - N/A   Clear
7:34 PM 24.8 °F 15.3 °F 23.0 °F 93% 29.53 in 10.0 mi East 9.2 mph - N/A   Clear
7:54 PM 24.8 °F 15.3 °F 24.8 °F 100% 29.52 in 10.0 mi East 9.2 mph - N/A   Mostly Cloudy
8:14 PM 24.8 °F 14.0 °F 24.8 °F 100% 29.51 in 10.0 mi East 11.5 mph - N/A   Overcast
8:34 PM 24.8 °F 16.1 °F 24.8 °F 100% 29.51 in 10.0 mi ESE 8.1 mph - N/A   Overcast
8:54 PM 26.6 °F 18.2 °F 24.8 °F 93% 29.50 in 10.0 mi ESE 8.1 mph - N/A   Mostly Cloudy
9:14 PM 26.6 °F 18.2 °F 26.6 °F 100% 29.50 in 10.0 mi ESE 8.1 mph - N/A Snow Light Snow
9:34 PM 26.6 °F 20.0 °F 26.6 °F 100% 29.50 in 10.0 mi SE 5.8 mph - N/A   Overcast
9:54 PM 28.4 °F - 26.6 °F 93% 29.50 in 10.0 mi Calm Calm - N/A   Overcast
10:14 PM 28.4 °F - 26.6 °F 93% 29.50 in 4.0 mi Calm Calm - N/A Snow Light Snow
10:34 PM 28.4 °F - 26.6 °F 93% 29.51 in 2.5 mi Calm Calm - N/A Snow Light Snow
10:54 PM 28.4 °F - 26.6 °F 93% 29.51 in 3.0 mi Calm Calm - N/A Snow Light Snow
11:14 PM 26.6 °F - 26.6 °F 100% 29.52 in 7.0 mi Calm Calm - N/A Snow Light Snow
11:34 PM 26.6 °F 21.2 °F 26.6 °F 100% 29.52 in 7.0 mi WNW 4.6 mph - N/A Snow Light Snow
11:54 PM 26.6 °F 19.1 °F 24.8 °F 93% 29.54 in 7.0 mi West 6.9 mph - N/A   Overcast